Regional Weather Roundup
Issued by NWS

Home | Current Version | Previous Version | Text Only | Print | Product List | Glossary On
Versions: 1 2 3 4 5 6 7 8 9 10 11 12 13 14 15 16 17 18 19 20 21 22 23 24 25 26 27 28 29 30 31 32 33 34 35 36 37 38 39 40 41 42 43 44 45 46 47 48 49 50
000
ASUS43 KDTX 280910
RWRMI
MICHIGAN HOURLY REGIONAL WEATHER ROUNDUP
NATIONAL WEATHER SERVICE DETROIT/PONTIAC MI
500 AM EDT TUE MAR 28 2017

NOTE: "FAIR" INDICATES FEW OR NO CLOUDS BELOW 12,000 FEET WITH NO
SIGNIFICANT WEATHER AND/OR OBSTRUCTION TO VISIBILITY.

MIZ047>049-052>055-059>063-066>070-074>076-081>083-281000-
SOUTHEAST LOWER MICHIGAN

CITY           SKY/WX    TMP DP  RH WIND       PRES   REMARKS
ADRIAN         CLOUDY    48  44  86 N7        29.91R
ANN ARBOR      CLOUDY    48  45  89 NW12      29.90R
BAD AXE        CLOUDY    36  36  98 N5        29.97R WCI  32
CARO           CLOUDY    39  38  97 N5        29.96R
DETROIT CITY   CLOUDY    41  39  93 N12G20    29.92R
DETROIT        CLOUDY    47  43  86 N14       29.91R
FLINT          CLOUDY    41  39  93 NE12      29.95R FOG
GROSSE ILE     CLOUDY    42  40  93 NE10      29.90R
HILLSDALE      CLOUDY    45  43  93 N10       29.90R
HOWELL         CLOUDY    43  41  93 N7        29.92S FOG

CITY           SKY/WX    TMP DP  RH WIND       PRES   REMARKS
JACKSON        CLOUDY    46  41  82 N6        29.92R
LAMBERTVILLE   CLOUDY    52  47  82 CALM      29.90R
LANSING        CLOUDY    42  39  89 N8        29.95R FOG
LAPEER         CLOUDY    39  39  98 NE5       29.95S FOG
MASON          CLOUDY    43  42  96 N7        29.93S
MONROE         CLOUDY    47  46  95 NE8       29.89R
MT. CLEMENS    CLOUDY    40  40 100 N10       29.91S WCI  34
PONTIAC        CLOUDY    40  38  93 N10       29.92R FOG     WCI  33
PORT HOPE        N/A     35  34  96 N7        29.95S WCI  29
PORT HURON     CLOUDY    37  36  93 N7        29.94S WCI  32
TRI CITIES     CLOUDY    38  38 100 NE7       29.98R FOG     WCI  33
MIDLAND        CLOUDY    39  38  97 N3        29.97S
TROY           CLOUDY    42  39  91 NE9       29.94S
SAGINAW HB     CLOUDY    39  36  87 N9        29.97R FOG     WCI  33
$$
MIZ043>046-050>051-056>058-064>065-071>073-077>080-281000-
SOUTHWEST LOWER MICHIGAN

CITY           SKY/WX    TMP DP  RH WIND       PRES   REMARKS
BATTLE CREEK   CLOUDY    45  42  89 N7        29.94R
BENTON HARBOR  CLOUDY    39  36  89 N6        29.97S WCI  35
BIG RAPIDS     CLOUDY    37  34  89 N6        29.98R WCI  32
COLDWATER      CLOUDY    46  44  91 N7        29.92R
FREMONT        CLOUDY    38  36  91 N6        29.98S WCI  34
HOLLAND        CLOUDY    41  37  86 N6        29.98R
GRAND RAPIDS   CLOUDY    43  41  93 N7        29.96R
IONIA          CLOUDY    41  40  97 NE6       29.95R
KALAMAZOO      CLOUDY    44  39  82 N7        29.94R
LUDINGTON      CLOUDY    37  37 100 N3        30.01S
MARSHALL       CLOUDY    45  43  92 N5        29.92S
MOUNT PLEASANT CLOUDY    39  35  87 N5        29.98R
MUSKEGON       CLOUDY    39  37  92 N7        29.99R WCI  34
SOUTH HAVEN    CLOUDY    38  37  95 N5        29.97R WCI  35
$$
MIZ016>042-281000-
NORTHERN LOWER MICHIGAN

CITY           SKY/WX    TMP DP  RH WIND       PRES   REMARKS
ALPENA         CLOUDY    36  36 100 NW7       30.01R WCI  30
BEAVER ISLAND  FOG       32  32 100 N3        30.05R VSB 1/2
BELLAIRE       CLOUDY    35  32  90 CALM      30.03S
CADILLAC       CLOUDY    34  33  96 N6        29.98R FOG     WCI  29
CHARLEVOIX     CLOUDY    33  33 100 N3        30.05S FOG
FRANKFORT      CLOUDY    36  33  89 CALM      30.02S
GAYLORD        FOG       36  32  85 N6        29.99R VSB 3/4 WCI  31
GRAYLING       CLOUDY    36  34  93 N5        30.00R FOG     WCI  32
HARBOR SPRINGS CLOUDY    33  33  99 CALM      30.02S
HOUGHTON LAKE  CLOUDY    36  34  92 N6        29.98S WCI  31
MANISTEE       CLOUDY    37  34  89 CALM      30.02R
OSCODA         CLOUDY    38  37  97 N7        29.98R FOG     WCI  32
PELLSTON       CLOUDY    34  32  92 N3        30.03R FOG
ROGERS CITY    CLOUDY    36  34  94 N3        30.03R FOG
TRAVERSE CITY  CLOUDY    36  33  89 N6        30.02R WCI  31
$$
MIZ007>008-015-281000-
EASTERN UPPER MICHIGAN

CITY           SKY/WX    TMP DP  RH WIND       PRES   REMARKS
KINROSS        CLOUDY    33  33 100 CALM      30.04R
MACKINAC ISLAN CLOUDY    33  33 100 N7        30.03R FOG     WCI  26
NEWBERRY       FOG       31  30  97 N5        30.04R VSB 1/2 WCI  26
S. S. MARIE    CLOUDY    37  32  82 NE5       30.04R WCI  33
MUNISING         N/A     31  31 100 NE5       30.06R WCI  26
$$
MIZ004>006-011>014-085-281000-
CENTRAL UPPER MICHIGAN

CITY           SKY/WX    TMP DP  RH WIND       PRES   REMARKS
MANISTIQUE     FOG       30  30 100 NE5       30.05R VSB 1/2 WCI  25
ESCANABA       CLEAR     26  26 100 W3        30.05S
MENOMINEE        N/A    N/A N/A N/A MISG        N/A
SAWYER-GWINN   CLEAR     29  28  93 N5        30.05R WCI  24
$$
MIZ001>003-009>011-084-281000-
WESTERN UPPER MICHIGAN

CITY           SKY/WX    TMP DP  RH WIND       PRES   REMARKS
IRON MOUNTAIN  CLEAR     24  21  88 NW3       30.03S
HOUGHTON       CLEAR     31  27  85 NW10      30.05S WCI  22
COPPER HARBOR    N/A     35  30  82 W5        30.06R WCI  31
IRONWOOD       CLEAR     23  22  96 CALM      30.08R
$$

ABBREVIATIONS USED IN REMARKS
   TC - TEMPERATURE IN CELSIUS
  WCI - WIND CHILL INDEX
   HX - HEAT INDEX
  VSB - VISIBILITY




USA.gov is the U.S. government's official web portal to all federal, state and local government web resources and services.